Regional Weather Roundup
Issued by NWS Charleston, SC

Current Version | Previous Version | Graphics & Text | Print | Product List | Glossary On
Versions: 1 2 3 4 5 6 7 8 9 10 11 12 13 14 15 16 17 18 19 20 21 22 23 24 25 26 27 28 29 30 31 32 33 34 35 36 37 38 39 40 41 42 43 44 45 46 47 48 49 50
315
ASUS42 KCHS 200912
RWRCHS

Regional Weather Roundup
National Weather Service Charleston SC
500 AM EDT SUN MAY 20 2018

NOTE: "fair" indicates few or no clouds below 12,000 feet with no
significant weather and/or obstructions to visibility.

Not all stations are quality controlled. Use data with caution,
especially dewpoint observations.

SCZ027-030-031-034>040-042>050-201000-
...Southeast South Carolina...

CITY           SKY/WX    TMP DP  RH WIND       PRES   REMARKS
N Charleston   MOCLDY    72  70  94 S6        30.11S
Waterfront Prk   N/A     74  71  90 CALM      29.96R
Mount Pleasant PTSUNNY   70  70 100 CALM      30.12S
Johns Island   PTSUNNY   73  72  94 CALM      30.11S
Pinopolis        N/A     72  72 100 CALM      30.03S
Moncks Corner  CLOUDY    70  68  94 CALM      30.12S
Summerville    CLOUDY    70  68  94 CALM      30.12S
Beaufort MCAS  FAIR      75  73  93 S5        30.10F
Beaufort Arpt  FAIR      73  72  94 CALM      30.10F
Hilton Head Is FAIR      75  72  88 SW5       30.12S
Walterboro     FAIR      68  68 100 CALM      30.11F
Allendale      PTSUNNY   72  70  94 CALM      30.10S

...Southern Midlands and Pee Dee...

CITY           SKY/WX    TMP DP  RH WIND       PRES   REMARKS
Georgetown     NOT AVBL
Kingstree      CLOUDY    68  68 100 E5        30.12S
Orangeburg     FAIR      71  69  93 CALM      30.10F
Barnwell       CLOUDY    72  70  94 CALM      30.11S
Aiken          PTSUNNY   68  68 100 SE3       30.14S
Manning        PTSUNNY   68  66  94 CALM      30.11F
Columbia       MOCLDY    72  71  97 SE5       30.09F
Sumter         CLOUDY    72  68  88 SW3       30.09S
Florence       CLOUDY    70  69  97 SE6       30.12S
Myrtle Beach   MOCLDY    70  69  97 SW6       30.14R
N Myrtle Beach LGT RAIN  71  69  93 S7        30.12F

$$

GAZ063-065-086>088-099>101-113>116-118-119-134>141-150-201000-
...Southeast Georgia...

CITY           SKY/WX    TMP DP  RH WIND       PRES   REMARKS
Savannah Arpt  FAIR      74  71  91 S3        30.11S
Hunter AAF     MOCLDY    74  69  85 S5        30.08S
Fort Stewart   CLOUDY    71  70  96 CALM      30.10R
Statesboro     MOCLDY    72  71  95 CALM      30.10S
Sylvania       PTSUNNY   73  72  99 CALM      30.11S
Claxton        FAIR      71  71  98 CALM      30.11R FOG

...CSRA, Central and far Southeast Georgia...

CITY           SKY/WX    TMP DP  RH WIND       PRES   REMARKS
Thomson        FAIR      67  67  98 S3        30.15R FOG
Augusta-Bush   CLOUDY    70  69  97 CALM      30.09S
Augusta-Daniel CLOUDY    72  71  97 SE3       30.11R
Swainsboro     PTSUNNY   72  72 100 SE3       30.11S
Vidalia        FAIR      72  68  88 CALM      30.11R
Eastman        FAIR      70  63  79 CALM      30.11S HAZE
Hazlehurst       N/A     74  69  87 CALM      30.09R
Alma           LGT RAIN  71  69  93 CALM      30.10R
Waycross       FAIR      71  68  90 CALM      30.10S
Jesup          FAIR      72  70  94 CALM      30.11R
Baxley         FAIR      70  68  94 CALM      30.11R
Brunswick      CLOUDY    72  68  88 CALM      30.11S
Saint Simons   MOCLDY    74  70  87 SW3       30.10S

$$

SCZ027-028-034-036>038-045-046-048>050-GAZ119-141-201000-
...Lake and Supplemental Coastal Observations...

STATION/POSITION TIME  TEMP    WIND        PRES    WAVE   SWELL
                       AIR SEA DIR/SP/G            HT/PER HT/PER/DIR
                 (UTC) (F)     (DEG/KT/KT) (MB)    (FT/S) (FT/S/D)
Winyah Bay       NOT AVBL
Lake Murray      0820   73     170/  6/  9 1018.6S
ACE Basin NERRS  0745   74        CALM     1020.0
Fort Pulaski     0842   75 78  240/  4/  6 1019.8R
Sapelo Island    0800   74     190/  5     1019.0

$$

ANZ835-935-AMZ111-154-330-350-352-354-370-450-454-472-201000-
...C-MAN and Buoy Observations...

STATION/POSITION TIME  TEMP    WIND        PRES    WAVE   SWELL
                       AIR SEA DIR/SP/G            HT/PER HT/PER/DIR
                 (UTC) (F)     (DEG/KT/KT) (MB)    (FT/S) (FT/S/D)
Buoy 41004       0850      74  160/  2/  4 1020.4R   7/ 8   7/140/ 8
Buoy 41008       0850   75 75  200/  8/ 10 1019.2S   4/ 9   3/120/ 9
Folly Beach CMAN 0800   74     220/ 10/ 13 1020.3S
Capers Nearshore 0808   75 75  220/ 10/ 14 1020.5S
Fripp Nearshore  0808   74 77  220/ 10/ 14 1019.1R


STATION/POSITION TIME  TEMP    WIND        PRES    WAVE   SWELL
                       AIR SEA DIR/SP/G            HT/PER HT/PER/DIR
                 (UTC) (F)     (DEG/KT/KT) (MB)    (FT/S) (FT/S/D)
5E St. Marys GA  0830      74                N/A     4/10
Frying Pan Buoy  0850   76 75  180/ 12/ 14 1020.8R   7/ 8   7/140/ 8
Buoy 41025       0850   77 75  210/ 16/ 19 1022.0R   6/ 7   2/110/15
Cape Lookout NC  0800          190/ 12/ 14 1021.5F
Buoy 41002       0850      77  160/ 16/ 19 1022.6R
Buoy 41010       0850   77 79  120/ 19/ 23 1019.7F   7/ 9   3/130/ 9
St Augustine FL  0900   70 75  260/  3/  4 1019.4S


$$




USA.gov is the U.S. government's official web portal to all federal, state and local government web resources and services.